• In Russia
  • List of Countries
  • For 7 days
  • Water Temperature
  • Satellite Maps
  • Weather Map
  • Weather Widgets
  • user-avatar
    Login

    Hourly Weather Razgrad

    Today, 26 March, Tuesday

    Time Temperature Precipitation Wind Pressure Humidity
    00:00 +12°C° 0 mm 2 mps 735 mmHg 56%
    01:00 +12°C° 0 mm 2 mps 736 mmHg 57%
    02:00 +10°C° 0 mm 2 mps 735 mmHg 57%
    03:00 +11°C° 0 mm 1 mps 736 mmHg 57%
    04:00 +11°C° 0 mm 1 mps 736 mmHg 57%
    05:00 +9°C° 0 mm 0 mps 736 mmHg 57%
    06:00 +11°C° 0 mm 1 mps 736 mmHg 60%
    07:00 +10°C° 0 mm 2 mps 737 mmHg 62%
    08:00 +11°C° 0 mm 3 mps 738 mmHg 64%
    09:00 +11°C° 0 mm 4 mps 738 mmHg 66%
    10:00 +11°C° 0 mm 4 mps 738 mmHg 67%
    11:00 +12°C° 0 mm 5 mps 738 mmHg 69%
    12:00 +11°C° 0.2 mm 4 mps 738 mmHg 71%
    13:00 +11°C° 0.2 mm 4 mps 739 mmHg 74%
    14:00 +11°C° 0.2 mm 4 mps 739 mmHg 76%
    15:00 +10°C° 0.5 mm 4 mps 739 mmHg 78%
    16:00 +8°C° 0.5 mm 4 mps 740 mmHg 81%
    17:00 +7°C° 0.5 mm 4 mps 740 mmHg 83%
    18:00 +8°C° 0.1 mm 3 mps 740 mmHg 84%
    19:00 +7°C° 0.1 mm 2 mps 741 mmHg 84%
    20:00 +8°C° 0.1 mm 1 mps 741 mmHg 84%
    21:00 +8°C° 0 mm 1 mps 741 mmHg 86%
    22:00 +8°C° 0 mm 1 mps 742 mmHg 87%
    23:00 +6°C° 0 mm 0 mps 742 mmHg 88%

    Tomorrow, 27 March, Wednesday

    Time Temperature Precipitation Wind Pressure Humidity
    00:00 +6°C° 0 mm 0 mps 742 mmHg 89%
    01:00 +7°C° 0 mm 1 mps 743 mmHg 89%
    02:00 +7°C° 0 mm 1 mps 743 mmHg 89%
    03:00 +7°C° 0 mm 1 mps 743 mmHg 87%
    04:00 +6°C° 0 mm 2 mps 743 mmHg 85%
    05:00 +6°C° 0 mm 2 mps 743 mmHg 83%
    06:00 +5°C° 0 mm 3 mps 743 mmHg 79%
    07:00 +5°C° 0 mm 4 mps 743 mmHg 76%
    08:00 +5°C° 0 mm 4 mps 744 mmHg 72%
    09:00 +6°C° 0 mm 5 mps 744 mmHg 72%
    10:00 +7°C° 0 mm 5 mps 744 mmHg 71%
    11:00 +8°C° 0 mm 5 mps 745 mmHg 71%
    12:00 +9°C° 0.1 mm 5 mps 745 mmHg 65%
    13:00 +10°C° 0.1 mm 5 mps 745 mmHg 59%
    14:00 +12°C° 0.1 mm 5 mps 745 mmHg 54%
    15:00 +12°C° 0.1 mm 4 mps 745 mmHg 55%
    16:00 +12°C° 0.1 mm 3 mps 745 mmHg 56%
    17:00 +11°C° 0.1 mm 3 mps 745 mmHg 57%
    18:00 +10°C° 0.2 mm 3 mps 745 mmHg 62%
    19:00 +9°C° 0.2 mm 3 mps 746 mmHg 68%
    20:00 +8°C° 0.2 mm 3 mps 747 mmHg 73%
    21:00 +8°C° 0 mm 3 mps 747 mmHg 75%
    22:00 +7°C° 0 mm 3 mps 748 mmHg 77%
    23:00 +7°C° 0 mm 3 mps 749 mmHg 79%

    Day after tomorrow, 28 March, Thursday

    Time Temperature Precipitation Wind Pressure Humidity
    00:00 +5°C° 0 mm 3 mps 749 mmHg 74%
    01:00 +4°C° 0 mm 4 mps 749 mmHg 69%
    02:00 +3°C° 0 mm 4 mps 749 mmHg 64%
    03:00 +1°C° 0 mm 4 mps 749 mmHg 62%
    04:00 +2°C° 0 mm 3 mps 750 mmHg 60%
    05:00 +1°C° 0 mm 3 mps 750 mmHg 58%
    06:00 +2°C° 0 mm 3 mps 750 mmHg 54%
    07:00 +1°C° 0 mm 4 mps 750 mmHg 49%
    08:00 +3°C° 0 mm 4 mps 751 mmHg 44%
    09:00 +4°C° 0 mm 4 mps 751 mmHg 42%
    10:00 +6°C° 0 mm 4 mps 751 mmHg 40%
    11:00 +7°C° 0 mm 4 mps 751 mmHg 37%
    12:00 +7°C° 0 mm 4 mps 751 mmHg 37%
    13:00 +8°C° 0 mm 5 mps 751 mmHg 36%
    14:00 +9°C° 0 mm 5 mps 751 mmHg 36%
    15:00 +8°C° 0 mm 5 mps 750 mmHg 36%
    16:00 +8°C° 0 mm 5 mps 750 mmHg 37%
    17:00 +8°C° 0 mm 4 mps 750 mmHg 38%
    18:00 +6°C° 0 mm 4 mps 750 mmHg 42%
    19:00 +5°C° 0 mm 3 mps 750 mmHg 46%
    20:00 +5°C° 0 mm 2 mps 751 mmHg 51%
    21:00 +4°C° 0 mm 2 mps 751 mmHg 51%
    22:00 +4°C° 0 mm 2 mps 752 mmHg 51%
    23:00 +4°C° 0 mm 2 mps 752 mmHg 51%

    29 March, Friday

    Time Temperature Precipitation Wind Pressure Humidity
    00:00 +3°C° 0 mm 2 mps 752 mmHg 50%
    01:00 +3°C° 0 mm 2 mps 752 mmHg 50%
    02:00 +3°C° 0 mm 2 mps 753 mmHg 49%
    03:00 +2°C° 0 mm 2 mps 752 mmHg 51%
    04:00 +1°C° 0 mm 2 mps 752 mmHg 54%
    05:00 +2°C° 0 mm 1 mps 752 mmHg 56%
    06:00 +2°C° 0 mm 2 mps 752 mmHg 55%
    07:00 +2°C° 0 mm 2 mps 753 mmHg 53%
    08:00 +2°C° 0 mm 3 mps 753 mmHg 51%
    09:00 +4°C° 0 mm 3 mps 753 mmHg 47%
    10:00 +5°C° 0 mm 4 mps 753 mmHg 43%
    11:00 +7°C° 0 mm 4 mps 753 mmHg 39%
    12:00 +7°C° 0 mm 4 mps 753 mmHg 37%
    13:00 +8°C° 0 mm 5 mps 752 mmHg 36%
    14:00 +9°C° 0 mm 5 mps 752 mmHg 34%
    15:00 +9°C° 0 mm 5 mps 751 mmHg 35%
    16:00 +8°C° 0 mm 5 mps 751 mmHg 35%
    17:00 +8°C° 0 mm 5 mps 750 mmHg 36%
    18:00 +7°C° 0 mm 4 mps 751 mmHg 40%
    19:00 +5°C° 0 mm 3 mps 751 mmHg 43%
    20:00 +5°C° 0 mm 2 mps 751 mmHg 47%
    21:00 +6°C° 0 mm 1 mps 751 mmHg 48%
    22:00 +5°C° 0 mm 1 mps 751 mmHg 49%
    23:00 +5°C° 0 mm 1 mps 751 mmHg 50%

    30 March, Saturday

    Time Temperature Precipitation Wind Pressure Humidity
    00:00 +4°C° 0 mm 1 mps 751 mmHg 51%
    01:00 +4°C° 0 mm 1 mps 751 mmHg 52%
    02:00 +4°C° 0 mm 1 mps 750 mmHg 53%
    03:00 +3°C° 0 mm 1 mps 750 mmHg 56%
    04:00 +3°C° 0 mm 1 mps 750 mmHg 58%
    05:00 +2°C° 0 mm 2 mps 750 mmHg 60%
    06:00 +3°C° 0 mm 2 mps 750 mmHg 60%
    07:00 +4°C° 0 mm 2 mps 750 mmHg 60%
    08:00 +5°C° 0 mm 2 mps 750 mmHg 60%
    09:00 +7°C° 0 mm 3 mps 749 mmHg 57%
    10:00 +9°C° 0 mm 3 mps 749 mmHg 54%
    11:00 +11°C° 0 mm 4 mps 749 mmHg 51%
    12:00 +12°C° 0 mm 4 mps 748 mmHg 49%
    13:00 +12°C° 0 mm 4 mps 748 mmHg 48%
    14:00 +13°C° 0 mm 4 mps 747 mmHg 46%
    15:00 +13°C° 0 mm 4 mps 747 mmHg 49%
    16:00 +13°C° 0 mm 4 mps 746 mmHg 52%
    17:00 +12°C° 0 mm 4 mps 746 mmHg 55%
    18:00 +11°C° 0 mm 3 mps 746 mmHg 61%
    19:00 +10°C° 0 mm 3 mps 746 mmHg 67%
    20:00 +8°C° 0 mm 2 mps 746 mmHg 73%
    21:00 +8°C° 0 mm 2 mps 745 mmHg 76%
    22:00 +8°C° 0 mm 1 mps 745 mmHg 79%
    23:00 +8°C° 0 mm 1 mps 745 mmHg 82%

    31 March, Sunday

    Time Temperature Precipitation Wind Pressure Humidity
    00:00 +8°C° 0 mm 1 mps 745 mmHg 83%
    01:00 +8°C° 0 mm 1 mps 744 mmHg 84%
    02:00 +8°C° 0 mm 1 mps 744 mmHg 84%
    03:00 +8°C° 0 mm 1 mps 743 mmHg 85%
    04:00 +7°C° 0 mm 1 mps 743 mmHg 86%
    05:00 +7°C° 0 mm 1 mps 743 mmHg 87%
    06:00 +8°C° 0 mm 1 mps 743 mmHg 85%
    07:00 +9°C° 0 mm 1 mps 743 mmHg 82%
    08:00 +8°C° 0 mm 2 mps 742 mmHg 80%
    09:00 +10°C° 0 mm 2 mps 742 mmHg 73%
    10:00 +12°C° 0 mm 3 mps 742 mmHg 66%
    11:00 +13°C° 0 mm 3 mps 742 mmHg 59%
    12:00 +14°C° 0.1 mm 3 mps 741 mmHg 58%
    13:00 +14°C° 0.1 mm 3 mps 741 mmHg 57%
    14:00 +14°C° 0.1 mm 3 mps 740 mmHg 56%
    15:00 +14°C° 0.2 mm 3 mps 740 mmHg 57%
    16:00 +14°C° 0.2 mm 3 mps 739 mmHg 57%
    17:00 +14°C° 0.2 mm 3 mps 739 mmHg 58%
    18:00 +13°C° 0.1 mm 2 mps 739 mmHg 64%
    19:00 +12°C° 0.1 mm 2 mps 739 mmHg 69%
    20:00 +11°C° 0.1 mm 1 mps 739 mmHg 75%
    21:00 +10°C° 0 mm 1 mps 739 mmHg 77%
    22:00 +10°C° 0 mm 1 mps 739 mmHg 79%
    23:00 +9°C° 0 mm 1 mps 739 mmHg 80%
    Show more